Погода в Полонном

Украина / Хмельницкая область     50˚07′00″N   27˚30′39″E
темп.,
°C
ветер,
м/с
пор.,
м/с
влажн.,
%
обл.,
%
осадки,
мм/ч
давл.,
гПа
погр.,
м
16 января, сб
сб1623:00−9˚зсз489394 0.1 1014580
02:00−12˚сз589097 0.3 1014511
05:00−15˚сз589394 0.0 1015474
08:00−16˚сз589297 0.1 1016498
11:00−15˚зсз5786100 0.0 1018608
14:00−13˚зсз4783100 0.1 1017779
17:00−14˚зсз2691100 0.1 1017566
20:00−14˚з129598 0.1 101776
17 января, вс
вс1723:00−14˚юз229455 0.0 101743
02:00−13˚ююз239463 0.0 1016114
05:00−11˚ю239696 0.3 1016118
08:00−10˚зсз119697 0.6 101668
11:00−9˚с2291100 0.1 1017254
14:00−10˚с2390100 0.3 1017326
17:00−12˚с3493100 0.1 1017277
20:00−12˚ссз3493100 0.6 1018356
18 января, пн
пн1823:00−13˚ссз4693100 0.5 1019436
02:00−16˚ссз369499 0.7 1020316
05:00−17˚сз479596 0.1 1020359
08:00−18˚сз479698 0.1 1021312
11:00−17˚сз4692100 0.0 1022335
14:00−15˚сз468891 0.0 1022373
17:00−17˚сз379454 0.0 1023218
20:00−17˚сз379471 0.0 1023252
19 января, вт
вт1923:00−17˚зсз359548 0.0 1023135
02:00−16˚зсз359448 0.0 1023163
05:00−16˚з249349 0.0 102298
08:00−15˚зюз249074 0.0 1022108
11:00−12˚юз348789 0.0 1021179
14:00−9˚юз358989 0.0 1020256
17:00−8˚ююз369598 0.2 1019173
20:00−8˚ююз489595 0.4 1019228
20 января, ср
ср2023:00−7˚юз479585 0.1 1019195
02:00−7˚ююз379389 0.1 1019178
05:00−7˚ююз3688100 0.0 1018136
08:00−6˚ююз4795100 0.1 1018189
11:00−4˚ююз598497 0.0 1018314
14:00−2˚ююз589190 0.0 1017309
17:00−3˚ююз489688 0.1 1017243
20:00−2˚ююз5109191 0.1 1017278